Location: Dittelbrunn
(50.0738°N, 10.2196°E)
Time: 01:22:05
(UTC+00:00)

Cosmos 1634 Rocket - Visible Passes

Search period start: 23 January 2021 00:00
Search period end: 02 February 2021 00:00
Orbit: 959 x 993 km, 82.9° (Epoch: 22 January)

Date Brightness Start Highest point End Pass type
(mag) Time Alt. Az. Time Alt. Az. Time Alt. Az.
23 Jan 7.1 03:26:08 10° E 03:27:22 11° ENE 03:28:36 10° ENE visible
23 Jan 4.5 05:05:23 10° S 05:11:25 61° E 05:17:31 10° NNE visible
23 Jan 6.3 17:42:10 10° NNW 17:47:10 26° W 17:52:10 10° SW visible
24 Jan 6.5 03:48:10 10° ESE 03:52:18 19° E 03:56:27 10° NE visible
24 Jan 3.9 05:30:45 10° S 05:36:54 82° W 05:43:09 10° N visible
24 Jan 6.8 18:08:49 10° NW 18:12:12 15° WNW 18:15:37 10° WSW visible
25 Jan 5.7 04:12:05 10° SE 04:17:25 32° E 04:22:47 10° NNE visible
25 Jan 4.1 05:56:37 10° SSW 06:02:34 50° WNW 06:08:36 10° N visible
25 Jan 5.2 16:47:16 10° NNW 16:53:14 48° W 16:59:14 10° SSW visible
26 Jan 4.7 04:36:45 10° SSE 04:42:42 53° E 04:48:41 10° NNE visible
26 Jan 4.7 06:23:01 10° SW 06:28:24 31° WNW 06:33:51 10° N visible
26 Jan 6.1 17:13:14 10° NNW 17:18:30 29° W 17:23:46 10° SW visible
27 Jan 6.6 03:19:58 10° ESE 03:23:40 17° ENE 03:27:23 10° NE visible
27 Jan 4.0 05:01:58 10° S 05:08:08 88° E 05:14:22 10° N visible
27 Jan 6.7 17:39:40 10° NW 17:43:35 18° WNW 17:47:31 10° WSW visible
28 Jan 5.9 03:43:37 10° SE 03:48:44 28° E 03:53:52 10° NNE visible
28 Jan 4.0 05:27:41 10° SSW 05:33:44 57° WNW 05:39:52 10° N visible
29 Jan 4.9 04:08:07 10° SSE 04:13:57 47° E 04:19:52 10° NNE visible
29 Jan 4.5 05:53:57 10° SW 05:59:32 35° WNW 06:05:11 10° N visible
29 Jan 5.9 16:44:19 10° NNW 16:49:49 33° W 16:55:20 10° SSW visible
30 Jan 6.7 02:51:53 10° ESE 02:55:02 15° ENE 02:58:12 10° NE visible
30 Jan 4.1 04:33:13 10° S 04:39:21 78° E 04:45:35 10° NNE visible
30 Jan 5.1 06:20:52 10° WSW 06:25:31 22° WNW 06:30:13 10° NNW visible
30 Jan 6.6 17:10:35 10° NW 17:14:57 20° W 17:19:19 10° SW visible
31 Jan 6.0 03:15:13 10° SE 03:20:04 25° E 03:24:55 10° NNE visible
31 Jan 3.9 04:58:49 10° SSW 05:04:56 64° WNW 05:11:08 10° N visible
31 Jan 7.0 17:38:01 10° NW 17:39:54 11° WNW 17:41:46 10° W visible
01 Feb 5.1 03:39:32 10° SSE 03:45:14 41° E 03:51:00 10° NNE visible
01 Feb 4.4 05:24:56 10° SW 05:30:40 39° WNW 05:36:29 10° N visible
